Time,TemperatureF,DewpointF,PressureIn,WindDirection,WindDirectionDegrees,WindSpeedMPH,WindSpeedGustMPH,Humidity,HourlyPrecipIn,Conditions,Clouds,dailyrainin,SoftwareType,DateUTC
2013-07-09 00:01:00,76.9,73.7,30.15,WSW,246,8.0,-999.0,90,0.00,,,0.00,Wunderground v.1.15,2013-07-09 04:01:00,
2013-07-09 00:03:00,76.9,73.7,30.15,WSW,246,2.0,-999.0,90,0.00,,,0.00,Wunderground v.1.15,2013-07-09 04:03:00,
2013-07-09 00:08:00,76.9,74.1,30.15,WSW,244,4.0,-999.0,91,0.00,,,0.00,Wunderground v.1.15,2013-07-09 04:08:00,
2013-07-09 00:13:00,76.8,74.0,30.15,WSW,244,2.0,-999.0,91,0.00,,,0.00,Wunderground v.1.15,2013-07-09 04:13:00,
2013-07-09 00:18:00,76.8,74.0,30.15,WSW,246,1.0,-999.0,91,0.00,,,0.00,Wunderground v.1.15,2013-07-09 04:18:00,
2013-07-09 00:23:00,76.8,74.0,30.15,WSW,246,5.0,-999.0,91,0.00,,,0.00,Wunderground v.1.15,2013-07-09 04:23:00,
2013-07-09 00:28:00,76.8,74.0,30.15,WSW,244,8.0,-999.0,91,0.00,,,0.00,Wunderground v.1.15,2013-07-09 04:28:00,
2013-07-09 00:33:00,76.8,74.0,30.15,WSW,243,5.0,-999.0,91,0.00,,,0.00,Wunderground v.1.15,2013-07-09 04:33:00,
2013-07-09 00:38:00,76.8,74.0,30.15,West,259,3.0,-999.0,91,0.00,,,0.00,Wunderground v.1.15,2013-07-09 04:38:00,
2013-07-09 00:43:00,76.8,74.3,30.16,WSW,248,4.0,-999.0,92,0.00,,,0.00,Wunderground v.1.15,2013-07-09 04:43:00,
2013-07-09 00:48:00,76.9,74.4,30.16,WSW,244,0.0,-999.0,92,0.00,,,0.00,Wunderground v.1.15,2013-07-09 04:48:00,
2013-07-09 00:54:00,76.9,74.4,30.16,WSW,247,4.0,-999.0,92,0.00,,,0.00,Wunderground v.1.15,2013-07-09 04:54:00,
2013-07-09 00:59:00,77.0,74.5,30.16,WSW,244,4.0,-999.0,92,0.00,,,0.00,Wunderground v.1.15,2013-07-09 04:59:00,
2013-07-09 01:04:00,77.0,74.5,30.16,WSW,254,7.0,-999.0,92,0.00,,,0.00,Wunderground v.1.15,2013-07-09 05:04:00,
2013-07-09 01:09:00,77.1,74.6,30.16,WSW,255,1.0,-999.0,92,0.00,,,0.00,Wunderground v.1.15,2013-07-09 05:09:00,
2013-07-09 01:14:00,77.1,74.6,30.16,WSW,254,4.0,-999.0,92,0.00,,,0.00,Wunderground v.1.15,2013-07-09 05:14:00,
2013-07-09 01:19:00,77.1,74.6,30.16,WSW,252,8.0,-999.0,92,0.00,,,0.00,Wunderground v.1.15,2013-07-09 05:19:00,
2013-07-09 01:24:00,77.1,74.6,30.16,WSW,256,9.0,-999.0,92,0.00,,,0.00,Wunderground v.1.15,2013-07-09 05:24:00,
2013-07-09 01:29:00,77.1,74.6,30.16,WSW,252,1.0,-999.0,92,0.00,,,0.00,Wunderground v.1.15,2013-07-09 05:29:00,
2013-07-09 01:34:00,77.0,74.5,30.16,WSW,251,7.0,-999.0,92,0.00,,,0.00,Wunderground v.1.15,2013-07-09 05:34:00,
2013-07-09 01:39:00,76.9,74.4,30.16,WSW,250,4.0,-999.0,92,0.00,,,0.00,Wunderground v.1.15,2013-07-09 05:39:00,
2013-07-09 01:44:00,76.9,74.4,30.15,WSW,251,1.0,-999.0,92,0.00,,,0.00,Wunderground v.1.15,2013-07-09 05:44:00,
2013-07-09 01:49:00,76.9,74.4,30.15,WSW,252,0.0,-999.0,92,0.00,,,0.00,Wunderground v.1.15,2013-07-09 05:49:00,
2013-07-09 01:54:00,76.9,74.4,30.15,WSW,250,4.0,-999.0,92,0.00,,,0.00,Wunderground v.1.15,2013-07-09 05:54:00,
2013-07-09 01:59:00,76.9,74.4,30.15,WSW,249,4.0,-999.0,92,0.00,,,0.00,Wunderground v.1.15,2013-07-09 05:59:00,
2013-07-09 02:04:00,76.9,74.4,30.15,WSW,249,5.0,-999.0,92,0.00,,,0.00,Wunderground v.1.15,2013-07-09 06:04:00,
2013-07-09 02:09:00,76.9,74.4,30.15,WSW,248,0.0,-999.0,92,0.00,,,0.00,Wunderground v.1.15,2013-07-09 06:09:00,
2013-07-09 02:15:00,77.0,74.8,30.14,WSW,248,0.0,-999.0,93,0.00,,,0.00,Wunderground v.1.15,2013-07-09 06:15:00,
2013-07-09 02:20:00,77.0,74.5,30.14,WSW,248,4.0,-999.0,92,0.00,,,0.00,Wunderground v.1.15,2013-07-09 06:20:00,
2013-07-09 02:25:00,77.1,74.9,30.14,WSW,248,0.0,-999.0,93,0.00,,,0.00,Wunderground v.1.15,2013-07-09 06:25:00,
2013-07-09 02:30:00,77.1,74.9,30.14,WSW,247,5.0,-999.0,93,0.00,,,0.00,Wunderground v.1.15,2013-07-09 06:30:00,
2013-07-09 02:35:00,77.2,75.0,30.14,WSW,246,9.0,-999.0,93,0.00,,,0.00,Wunderground v.1.15,2013-07-09 06:35:00,
2013-07-09 02:40:00,77.3,75.1,30.14,WSW,245,0.0,-999.0,93,0.00,,,0.00,Wunderground v.1.15,2013-07-09 06:40:00,
2013-07-09 02:45:00,77.3,75.1,30.14,WSW,245,10.0,-999.0,93,0.00,,,0.00,Wunderground v.1.15,2013-07-09 06:45:00,
2013-07-09 02:50:00,77.4,75.2,30.14,WSW,244,7.0,-999.0,93,0.00,,,0.00,Wunderground v.1.15,2013-07-09 06:50:00,
2013-07-09 02:55:00,77.5,75.3,30.14,SW,236,2.0,-999.0,93,0.00,,,0.00,Wunderground v.1.15,2013-07-09 06:55:00,
2013-07-09 03:00:00,77.5,75.3,30.14,WSW,237,7.0,-999.0,93,0.00,,,0.00,Wunderground v.1.15,2013-07-09 07:00:00,
2013-07-09 03:06:00,77.5,75.3,30.13,SW,234,5.0,-999.0,93,0.00,,,0.00,Wunderground v.1.15,2013-07-09 07:06:00,
2013-07-09 03:11:00,77.5,75.3,30.13,SW,234,0.0,-999.0,93,0.00,,,0.00,Wunderground v.1.15,2013-07-09 07:11:00,
2013-07-09 03:16:00,77.4,75.2,30.13,SW,234,6.0,-999.0,93,0.00,,,0.00,Wunderground v.1.15,2013-07-09 07:16:00,
2013-07-09 03:21:00,77.4,75.2,30.13,SW,236,0.0,-999.0,93,0.00,,,0.00,Wunderground v.1.15,2013-07-09 07:21:00,
2013-07-09 03:26:00,77.4,75.2,30.13,SW,234,1.0,-999.0,93,0.00,,,0.00,Wunderground v.1.15,2013-07-09 07:26:00,
2013-07-09 03:31:00,77.3,75.1,30.13,SW,233,4.0,-999.0,93,0.00,,,0.00,Wunderground v.1.15,2013-07-09 07:31:00,
2013-07-09 03:36:00,77.3,75.1,30.13,SW,233,3.0,-999.0,93,0.00,,,0.00,Wunderground v.1.15,2013-07-09 07:36:00,
2013-07-09 03:41:00,77.3,75.1,30.13,SW,233,0.0,-999.0,93,0.00,,,0.00,Wunderground v.1.15,2013-07-09 07:41:00,
2013-07-09 03:46:00,77.2,75.0,30.13,SW,231,4.0,-999.0,93,0.00,,,0.00,Wunderground v.1.15,2013-07-09 07:46:00,
2013-07-09 03:52:00,77.3,75.1,30.13,SW,231,3.0,-999.0,93,0.00,,,0.00,Wunderground v.1.15,2013-07-09 07:52:00,
2013-07-09 03:57:00,77.4,75.2,30.13,SW,232,0.0,-999.0,93,0.00,,,0.00,Wunderground v.1.15,2013-07-09 07:57:00,
2013-07-09 04:03:00,77.4,75.2,30.13,SW,232,6.0,-999.0,93,0.00,,,0.00,Wunderground v.1.15,2013-07-09 08:03:00,
2013-07-09 04:08:00,77.3,74.8,30.13,SW,234,1.0,-999.0,92,0.00,,,0.00,Wunderground v.1.15,2013-07-09 08:08:00,
2013-07-09 04:13:00,77.3,74.8,30.13,SW,236,3.0,-999.0,92,0.00,,,0.00,Wunderground v.1.15,2013-07-09 08:13:00,
2013-07-09 04:18:00,77.2,74.7,30.13,SW,236,5.0,-999.0,92,0.00,,,0.00,Wunderground v.1.15,2013-07-09 08:18:00,
2013-07-09 04:23:00,77.3,75.1,30.12,SW,236,0.0,-999.0,93,0.00,,,0.00,Wunderground v.1.15,2013-07-09 08:23:00,
2013-07-09 04:28:00,77.3,75.1,30.12,SW,236,0.0,-999.0,93,0.00,,,0.00,Wunderground v.1.15,2013-07-09 08:28:00,
2013-07-09 04:33:00,77.3,75.1,30.12,SW,236,0.0,-999.0,93,0.00,,,0.00,Wunderground v.1.15,2013-07-09 08:33:00,
2013-07-09 04:38:00,77.2,75.0,30.13,SW,236,3.0,-999.0,93,0.00,,,0.00,Wunderground v.1.15,2013-07-09 08:38:00,
2013-07-09 04:43:00,77.2,75.0,30.13,SW,236,2.0,-999.0,93,0.00,,,0.00,Wunderground v.1.15,2013-07-09 08:43:00,
2013-07-09 04:48:00,77.2,75.0,30.13,SW,236,5.0,-999.0,93,0.00,,,0.00,Wunderground v.1.15,2013-07-09 08:48:00,
2013-07-09 04:53:00,77.2,75.0,30.13,SW,236,0.0,-999.0,93,0.00,,,0.00,Wunderground v.1.15,2013-07-09 08:53:00,
2013-07-09 04:58:00,77.3,75.1,30.13,SW,235,3.0,-999.0,93,0.00,,,0.00,Wunderground v.1.15,2013-07-09 08:58:00,
2013-07-09 05:03:00,77.3,75.1,30.13,SW,235,3.0,-999.0,93,0.00,,,0.00,Wunderground v.1.15,2013-07-09 09:03:00,
2013-07-09 05:09:00,77.3,75.1,30.13,SW,235,4.0,-999.0,93,0.00,,,0.00,Wunderground v.1.15,2013-07-09 09:09:00,
2013-07-09 05:14:00,77.4,75.2,30.13,SW,234,5.0,-999.0,93,0.00,,,0.00,Wunderground v.1.15,2013-07-09 09:14:00,
2013-07-09 05:19:00,77.4,75.2,30.13,SW,236,5.0,-999.0,93,0.00,,,0.00,Wunderground v.1.15,2013-07-09 09:19:00,
2013-07-09 05:24:00,77.4,75.2,30.13,SW,235,3.0,-999.0,93,0.00,,,0.00,Wunderground v.1.15,2013-07-09 09:24:00,
2013-07-09 05:29:00,77.5,75.3,30.13,SW,234,3.0,-999.0,93,0.00,,,0.00,Wunderground v.1.15,2013-07-09 09:29:00,
2013-07-09 05:34:00,77.5,75.3,30.13,SW,233,0.0,-999.0,93,0.00,,,0.00,Wunderground v.1.15,2013-07-09 09:34:00,
2013-07-09 05:39:00,77.6,75.4,30.13,SW,234,3.0,-999.0,93,0.00,,,0.00,Wunderground v.1.15,2013-07-09 09:39:00,
2013-07-09 05:44:00,77.6,75.4,30.13,SW,235,6.0,-999.0,93,0.00,,,0.00,Wunderground v.1.15,2013-07-09 09:44:00,
2013-07-09 05:49:00,77.7,75.5,30.14,WSW,241,5.0,-999.0,93,0.00,,,0.00,Wunderground v.1.15,2013-07-09 09:49:00,
2013-07-09 05:54:00,77.8,75.6,30.14,WSW,244,4.0,-999.0,93,0.00,,,0.00,Wunderground v.1.15,2013-07-09 09:54:00,
2013-07-09 05:59:00,77.9,75.7,30.14,WSW,246,7.0,-999.0,93,0.00,,,0.00,Wunderground v.1.15,2013-07-09 09:59:00,
2013-07-09 06:04:00,77.9,75.7,30.14,WSW,246,0.0,-999.0,93,0.00,,,0.00,Wunderground v.1.15,2013-07-09 10:04:00,
2013-07-09 06:09:00,77.9,75.7,30.14,WSW,250,2.0,-999.0,93,0.00,,,0.00,Wunderground v.1.15,2013-07-09 10:09:00,
2013-07-09 06:15:00,77.8,75.6,30.14,WSW,250,2.0,-999.0,93,0.00,,,0.00,Wunderground v.1.15,2013-07-09 10:15:00,
2013-07-09 06:20:00,77.8,75.6,30.14,WSW,250,1.0,-999.0,93,0.00,,,0.00,Wunderground v.1.15,2013-07-09 10:20:00,
2013-07-09 06:25:00,77.8,75.6,30.14,WSW,250,2.0,-999.0,93,0.00,,,0.00,Wunderground v.1.15,2013-07-09 10:25:00,
2013-07-09 06:30:00,77.8,75.6,30.14,WSW,250,4.0,-999.0,93,0.00,,,0.00,Wunderground v.1.15,2013-07-09 10:30:00,
2013-07-09 06:35:00,77.8,75.6,30.14,WSW,248,4.0,-999.0,93,0.00,,,0.00,Wunderground v.1.15,2013-07-09 10:35:00,
2013-07-09 06:40:00,77.8,75.6,30.15,WSW,250,5.0,-999.0,93,0.00,,,0.00,Wunderground v.1.15,2013-07-09 10:40:00,
2013-07-09 06:45:00,77.8,75.6,30.14,WSW,249,8.0,-999.0,93,0.00,,,0.00,Wunderground v.1.15,2013-07-09 10:45:00,
2013-07-09 06:46:00,77.8,75.6,30.14,WSW,250,9.0,-999.0,93,0.00,,,0.00,Wunderground v.1.15,2013-07-09 10:46:00,
2013-07-09 06:51:00,77.8,75.6,30.15,WSW,248,4.0,-999.0,93,0.00,,,0.00,Wunderground v.1.15,2013-07-09 10:51:00,
2013-07-09 06:56:00,77.8,75.6,30.14,WSW,249,4.0,-999.0,93,0.00,,,0.00,Wunderground v.1.15,2013-07-09 10:56:00,
2013-07-09 06:58:00,77.8,75.6,30.14,WSW,249,4.0,-999.0,93,0.00,,,0.00,Wunderground v.1.15,2013-07-09 10:58:00,
2013-07-09 07:03:00,77.8,75.6,30.14,WSW,244,5.0,-999.0,93,0.00,,,0.00,Wunderground v.1.15,2013-07-09 11:03:00,
2013-07-09 07:08:00,77.8,75.6,30.14,WSW,246,4.0,-999.0,93,0.00,,,0.00,Wunderground v.1.15,2013-07-09 11:08:00,
2013-07-09 07:13:00,77.8,75.6,30.14,WSW,246,3.0,-999.0,93,0.00,,,0.00,Wunderground v.1.15,2013-07-09 11:13:00,
2013-07-09 07:18:00,77.9,75.7,30.14,WSW,247,7.0,-999.0,93,0.00,,,0.00,Wunderground v.1.15,2013-07-09 11:18:00,
2013-07-09 07:24:00,78.0,75.8,30.15,WSW,246,5.0,-999.0,93,0.00,,,0.00,Wunderground v.1.15,2013-07-09 11:24:00,
2013-07-09 07:29:00,78.2,76.0,30.15,WSW,247,3.0,-999.0,93,0.00,,,0.00,Wunderground v.1.15,2013-07-09 11:29:00,
2013-07-09 07:34:00,78.2,75.7,30.16,WSW,251,9.0,-999.0,92,0.00,,,0.00,Wunderground v.1.15,2013-07-09 11:34:00,
2013-07-09 07:39:00,78.3,75.8,30.16,WSW,250,3.0,-999.0,92,0.00,,,0.00,Wunderground v.1.15,2013-07-09 11:39:00,
2013-07-09 07:44:00,78.4,75.9,30.16,WSW,244,4.0,-999.0,92,0.00,,,0.00,Wunderground v.1.15,2013-07-09 11:44:00,
2013-07-09 07:49:00,78.5,76.0,30.15,WSW,248,3.0,-999.0,92,0.00,,,0.00,Wunderground v.1.15,2013-07-09 11:49:00,
2013-07-09 07:54:00,78.6,76.1,30.15,WSW,243,0.0,-999.0,92,0.00,,,0.00,Wunderground v.1.15,2013-07-09 11:54:00,
2013-07-09 07:59:00,78.9,76.4,30.15,WSW,243,4.0,-999.0,92,0.00,,,0.00,Wunderground v.1.15,2013-07-09 11:59:00,
2013-07-09 08:04:00,79.1,76.2,30.16,WSW,238,5.0,-999.0,91,0.00,,,0.00,Wunderground v.1.15,2013-07-09 12:04:00,
2013-07-09 08:09:00,79.2,76.0,30.16,WSW,244,5.0,-999.0,90,0.00,,,0.00,Wunderground v.1.15,2013-07-09 12:09:00,
2013-07-09 08:14:00,79.2,76.0,30.16,WSW,246,7.0,-999.0,90,0.00,,,0.00,Wunderground v.1.15,2013-07-09 12:14:00,
2013-07-09 08:19:00,79.2,76.0,30.17,WSW,246,4.0,-999.0,90,0.00,,,0.00,Wunderground v.1.15,2013-07-09 12:19:00,
2013-07-09 08:24:00,79.1,75.9,30.17,WSW,251,7.0,-999.0,90,0.00,,,0.00,Wunderground v.1.15,2013-07-09 12:24:00,
2013-07-09 08:30:00,79.2,76.0,30.17,WSW,246,3.0,-999.0,90,0.00,,,0.00,Wunderground v.1.15,2013-07-09 12:30:00,
2013-07-09 08:35:00,79.3,76.1,30.17,WSW,250,5.0,-999.0,90,0.00,,,0.00,Wunderground v.1.15,2013-07-09 12:35:00,
2013-07-09 08:40:00,79.2,76.0,30.17,WSW,248,2.0,-999.0,90,0.00,,,0.00,Wunderground v.1.15,2013-07-09 12:40:00,
2013-07-09 08:45:00,79.1,75.9,30.17,WSW,249,1.0,-999.0,90,0.00,,,0.00,Wunderground v.1.15,2013-07-09 12:45:00,
2013-07-09 08:50:00,79.2,76.0,30.17,WSW,250,4.0,-999.0,90,0.00,,,0.00,Wunderground v.1.15,2013-07-09 12:50:00,
2013-07-09 08:55:00,79.2,76.0,30.17,WSW,248,4.0,-999.0,90,0.00,,,0.00,Wunderground v.1.15,2013-07-09 12:55:00,
2013-07-09 09:00:00,79.3,76.1,30.17,WSW,247,4.0,-999.0,90,0.00,,,0.00,Wunderground v.1.15,2013-07-09 13:00:00,
2013-07-09 09:05:00,79.2,76.0,30.17,WSW,247,4.0,-999.0,90,0.00,,,0.00,Wunderground v.1.15,2013-07-09 13:05:00,
2013-07-09 09:10:00,79.3,76.1,30.17,WSW,246,2.0,-999.0,90,0.00,,,0.00,Wunderground v.1.15,2013-07-09 13:10:00,
2013-07-09 09:15:00,79.1,75.9,30.17,SW,228,6.0,-999.0,90,0.00,,,0.00,Wunderground v.1.15,2013-07-09 13:15:00,
2013-07-09 09:21:00,78.7,75.2,30.18,WSW,255,10.0,-999.0,89,0.00,,,0.00,Wunderground v.1.15,2013-07-09 13:21:00,
2013-07-09 09:26:00,78.6,74.4,30.18,WNW,282,6.0,-999.0,87,0.00,,,0.00,Wunderground v.1.15,2013-07-09 13:26:00,
2013-07-09 09:31:00,78.8,74.9,30.17,WNW,284,4.0,-999.0,88,0.00,,,0.00,Wunderground v.1.15,2013-07-09 13:31:00,
2013-07-09 09:36:00,79.0,74.8,30.17,West,275,3.0,-999.0,87,0.00,,,0.00,Wunderground v.1.15,2013-07-09 13:36:00,
2013-07-09 09:41:00,79.2,75.0,30.17,West,269,0.0,-999.0,87,0.00,,,0.00,Wunderground v.1.15,2013-07-09 13:41:00,
2013-07-09 09:46:00,79.4,74.8,30.17,West,264,6.0,-999.0,86,0.00,,,0.00,Wunderground v.1.15,2013-07-09 13:46:00,
2013-07-09 09:51:00,79.6,74.7,30.17,West,259,1.0,-999.0,85,0.00,,,0.00,Wunderground v.1.15,2013-07-09 13:51:00,
2013-07-09 09:56:00,79.8,74.9,30.17,WSW,248,9.0,-999.0,85,0.00,,,0.00,Wunderground v.1.15,2013-07-09 13:56:00,
2013-07-09 10:01:00,79.9,74.6,30.17,WSW,247,3.0,-999.0,84,0.00,,,0.00,Wunderground v.1.15,2013-07-09 14:01:00,
2013-07-09 10:06:00,80.1,74.8,30.17,WSW,244,7.0,-999.0,84,0.00,,,0.00,Wunderground v.1.15,2013-07-09 14:06:00,
2013-07-09 10:11:00,80.4,74.8,30.18,SW,233,5.0,-999.0,83,0.00,,,0.00,Wunderground v.1.15,2013-07-09 14:11:00,
2013-07-09 10:16:00,80.5,75.2,30.18,SW,235,0.0,-999.0,84,0.00,,,0.00,Wunderground v.1.15,2013-07-09 14:16:00,
2013-07-09 10:21:00,80.5,75.2,30.18,SW,234,2.0,-999.0,84,0.00,,,0.00,Wunderground v.1.15,2013-07-09 14:21:00,
2013-07-09 10:26:00,80.5,74.9,30.18,WSW,244,9.0,-999.0,83,0.00,,,0.00,Wunderground v.1.15,2013-07-09 14:26:00,
2013-07-09 10:31:00,80.4,74.8,30.18,WSW,246,8.0,-999.0,83,0.00,,,0.00,Wunderground v.1.15,2013-07-09 14:31:00,
2013-07-09 10:36:00,80.4,74.8,30.18,WSW,252,5.0,-999.0,83,0.00,,,0.00,Wunderground v.1.15,2013-07-09 14:36:00,
2013-07-09 10:41:00,80.3,75.0,30.17,WSW,250,7.0,-999.0,84,0.00,,,0.00,Wunderground v.1.15,2013-07-09 14:41:00,
2013-07-09 10:46:00,79.9,74.3,30.17,WSW,250,9.0,-999.0,83,0.00,,,0.00,Wunderground v.1.15,2013-07-09 14:46:00,
2013-07-09 10:52:00,79.9,74.3,30.17,WSW,254,8.0,-999.0,83,0.00,,,0.00,Wunderground v.1.15,2013-07-09 14:52:00,
2013-07-09 10:57:00,79.9,74.3,30.17,WSW,251,5.0,-999.0,83,0.00,,,0.00,Wunderground v.1.15,2013-07-09 14:57:00,
2013-07-09 11:02:00,80.1,74.5,30.17,WSW,244,5.0,-999.0,83,0.00,,,0.00,Wunderground v.1.15,2013-07-09 15:02:00,
2013-07-09 11:07:00,80.1,74.5,30.17,WSW,244,5.0,-999.0,83,0.00,,,0.00,Wunderground v.1.15,2013-07-09 15:07:00,
2013-07-09 11:12:00,80.1,74.1,30.17,WSW,246,2.0,-999.0,82,0.00,,,0.00,Wunderground v.1.15,2013-07-09 15:12:00,
2013-07-09 11:17:00,80.3,74.7,30.17,WSW,251,4.0,-999.0,83,0.00,,,0.00,Wunderground v.1.15,2013-07-09 15:17:00,
2013-07-09 11:22:00,80.5,75.2,30.17,WSW,248,7.0,-999.0,84,0.00,,,0.00,Wunderground v.1.15,2013-07-09 15:22:00,
2013-07-09 11:27:00,80.5,75.6,30.16,WSW,244,7.0,-999.0,85,0.00,,,0.00,Wunderground v.1.15,2013-07-09 15:27:00,
2013-07-09 11:32:00,80.6,75.7,30.16,WSW,246,7.0,-999.0,85,0.00,,,0.00,Wunderground v.1.15,2013-07-09 15:32:00,
2013-07-09 11:37:00,80.4,75.5,30.16,WSW,248,9.0,-999.0,85,0.00,,,0.00,Wunderground v.1.15,2013-07-09 15:37:00,
2013-07-09 11:42:00,80.1,75.5,30.16,WSW,250,8.0,-999.0,86,0.00,,,0.00,Wunderground v.1.15,2013-07-09 15:42:00,
2013-07-09 11:47:00,80.0,75.4,30.16,WSW,250,4.0,-999.0,86,0.00,,,0.00,Wunderground v.1.15,2013-07-09 15:47:00,
2013-07-09 11:52:00,79.9,75.3,30.16,WSW,251,5.0,-999.0,86,0.00,,,0.00,Wunderground v.1.15,2013-07-09 15:52:00,
2013-07-09 11:57:00,79.9,75.7,30.16,WSW,248,7.0,-999.0,87,0.00,,,0.00,Wunderground v.1.15,2013-07-09 15:57:00,
2013-07-09 12:02:00,80.1,75.9,30.16,WSW,248,0.0,-999.0,87,0.00,,,0.00,Wunderground v.1.15,2013-07-09 16:02:00,
2013-07-09 12:07:00,80.2,76.0,30.16,WSW,252,5.0,-999.0,87,0.00,,,0.00,Wunderground v.1.15,2013-07-09 16:07:00,
2013-07-09 12:12:00,80.3,76.1,30.15,WSW,255,2.0,-999.0,87,0.00,,,0.00,Wunderground v.1.15,2013-07-09 16:12:00,
2013-07-09 12:17:00,80.3,76.1,30.15,WSW,255,5.0,-999.0,87,0.00,,,0.00,Wunderground v.1.15,2013-07-09 16:17:00,
2013-07-09 12:23:00,80.3,76.1,30.15,WSW,245,3.0,-999.0,87,0.00,,,0.00,Wunderground v.1.15,2013-07-09 16:23:00,
2013-07-09 12:28:00,80.2,76.0,30.15,WSW,252,10.0,-999.0,87,0.00,,,0.00,Wunderground v.1.15,2013-07-09 16:28:00,
2013-07-09 12:33:00,80.5,76.6,30.15,WSW,253,8.0,-999.0,88,0.00,,,0.00,Wunderground v.1.15,2013-07-09 16:33:00,
2013-07-09 12:38:00,81.1,77.2,30.15,West,260,10.0,-999.0,88,0.00,,,0.00,Wunderground v.1.15,2013-07-09 16:38:00,
2013-07-09 12:43:00,81.3,77.1,30.15,West,263,10.0,-999.0,87,0.00,,,0.00,Wunderground v.1.15,2013-07-09 16:43:00,
2013-07-09 12:48:00,81.2,77.0,30.15,WSW,244,11.0,-999.0,87,0.00,,,0.00,Wunderground v.1.15,2013-07-09 16:48:00,
2013-07-09 12:53:00,81.1,76.9,30.15,WSW,244,9.0,-999.0,87,0.00,,,0.00,Wunderground v.1.15,2013-07-09 16:53:00,
2013-07-09 12:58:00,81.0,76.8,30.15,WSW,254,11.0,-999.0,87,0.00,,,0.00,Wunderground v.1.15,2013-07-09 16:58:00,
2013-07-09 13:03:00,80.9,77.0,30.15,West,263,8.0,-999.0,88,0.00,,,0.00,Wunderground v.1.15,2013-07-09 17:03:00,
2013-07-09 13:08:00,81.0,76.8,30.15,WSW,252,5.0,-999.0,87,0.00,,,0.00,Wunderground v.1.15,2013-07-09 17:08:00,
2013-07-09 13:13:00,81.1,76.9,30.15,WSW,252,7.0,-999.0,87,0.00,,,0.00,Wunderground v.1.15,2013-07-09 17:13:00,
2013-07-09 13:18:00,81.1,76.9,30.15,WSW,248,7.0,-999.0,87,0.00,,,0.00,Wunderground v.1.15,2013-07-09 17:18:00,
2013-07-09 13:23:00,81.0,76.4,30.15,WSW,243,11.0,-999.0,86,0.00,,,0.00,Wunderground v.1.15,2013-07-09 17:23:00,
2013-07-09 13:28:00,80.9,76.7,30.14,WSW,248,8.0,-999.0,87,0.00,,,0.00,Wunderground v.1.15,2013-07-09 17:28:00,
2013-07-09 13:34:00,80.8,76.6,30.14,WSW,246,4.0,-999.0,87,0.00,,,0.00,Wunderground v.1.15,2013-07-09 17:34:00,
2013-07-09 13:39:00,81.0,76.8,30.14,WSW,250,5.0,-999.0,87,0.00,,,0.00,Wunderground v.1.15,2013-07-09 17:39:00,
2013-07-09 13:44:00,81.2,77.0,30.14,WSW,245,5.0,-999.0,87,0.00,,,0.00,Wunderground v.1.15,2013-07-09 17:44:00,
2013-07-09 13:49:00,81.2,77.0,30.14,WSW,246,5.0,-999.0,87,0.00,,,0.00,Wunderground v.1.15,2013-07-09 17:49:00,
2013-07-09 13:54:00,81.0,76.8,30.14,WSW,244,11.0,-999.0,87,0.00,,,0.00,Wunderground v.1.15,2013-07-09 17:54:00,
2013-07-09 13:59:00,81.1,76.9,30.14,WSW,254,10.0,-999.0,87,0.00,,,0.00,Wunderground v.1.15,2013-07-09 17:59:00,
2013-07-09 14:04:00,81.2,77.0,30.14,WSW,248,9.0,-999.0,87,0.00,,,0.00,Wunderground v.1.15,2013-07-09 18:04:00,
2013-07-09 14:09:00,81.0,76.4,30.14,WSW,250,5.0,-999.0,86,0.00,,,0.00,Wunderground v.1.15,2013-07-09 18:09:00,
2013-07-09 14:14:00,81.2,76.6,30.14,WSW,251,8.0,-999.0,86,0.00,,,0.00,Wunderground v.1.15,2013-07-09 18:14:00,
2013-07-09 14:19:00,81.4,76.5,30.13,WSW,246,14.0,-999.0,85,0.00,,,0.00,Wunderground v.1.15,2013-07-09 18:19:00,
2013-07-09 14:24:00,81.2,76.3,30.13,West,274,3.0,-999.0,85,0.00,,,0.00,Wunderground v.1.15,2013-07-09 18:24:00,
2013-07-09 14:29:00,81.5,76.6,30.13,WSW,240,6.0,-999.0,85,0.00,,,0.00,Wunderground v.1.15,2013-07-09 18:29:00,
2013-07-09 14:34:00,81.7,76.4,30.13,WSW,254,12.0,-999.0,84,0.00,,,0.00,Wunderground v.1.15,2013-07-09 18:34:00,
2013-07-09 14:39:00,81.8,76.1,30.13,WSW,248,7.0,-999.0,83,0.00,,,0.00,Wunderground v.1.15,2013-07-09 18:39:00,
2013-07-09 14:45:00,81.8,76.5,30.13,West,270,11.0,-999.0,84,0.00,,,0.00,Wunderground v.1.15,2013-07-09 18:45:00,
2013-07-09 14:50:00,82.0,76.7,30.13,West,259,8.0,-999.0,84,0.00,,,0.00,Wunderground v.1.15,2013-07-09 18:50:00,
2013-07-09 14:55:00,82.1,76.8,30.13,West,261,11.0,-999.0,84,0.00,,,0.00,Wunderground v.1.15,2013-07-09 18:55:00,
2013-07-09 15:00:00,82.2,76.9,30.13,WSW,255,10.0,-999.0,84,0.00,,,0.00,Wunderground v.1.15,2013-07-09 19:00:00,
2013-07-09 15:05:00,82.5,77.2,30.12,SW,235,4.0,-999.0,84,0.00,,,0.00,Wunderground v.1.15,2013-07-09 19:05:00,
2013-07-09 15:10:00,82.8,77.5,30.12,WSW,250,11.0,-999.0,84,0.00,,,0.00,Wunderground v.1.15,2013-07-09 19:10:00,
2013-07-09 15:15:00,82.8,77.5,30.12,WSW,251,12.0,-999.0,84,0.00,,,0.00,Wunderground v.1.15,2013-07-09 19:15:00,
2013-07-09 15:20:00,82.6,77.3,30.12,West,261,8.0,-999.0,84,0.00,,,0.00,Wunderground v.1.15,2013-07-09 19:20:00,
2013-07-09 15:25:00,82.4,77.1,30.12,WSW,244,10.0,-999.0,84,0.00,,,0.00,Wunderground v.1.15,2013-07-09 19:25:00,
2013-07-09 15:30:00,82.4,77.1,30.11,WSW,242,5.0,-999.0,84,0.00,,,0.00,Wunderground v.1.15,2013-07-09 19:30:00,
2013-07-09 15:35:00,82.0,77.0,30.11,WSW,257,8.0,-999.0,85,0.00,,,0.00,Wunderground v.1.15,2013-07-09 19:35:00,
2013-07-09 15:40:00,81.8,76.8,30.11,WSW,239,5.0,-999.0,85,0.00,,,0.00,Wunderground v.1.15,2013-07-09 19:40:00,
2013-07-09 15:45:00,82.3,77.7,30.11,West,263,11.0,-999.0,86,0.00,,,0.00,Wunderground v.1.15,2013-07-09 19:45:00,
2013-07-09 15:50:00,82.6,77.3,30.11,SW,236,3.0,-999.0,84,0.00,,,0.00,Wunderground v.1.15,2013-07-09 19:50:00,
2013-07-09 15:56:00,82.8,77.5,30.11,SW,229,12.0,-999.0,84,0.00,,,0.00,Wunderground v.1.15,2013-07-09 19:56:00,
2013-07-09 16:01:00,82.9,77.2,30.11,SW,231,8.0,-999.0,83,0.00,,,0.00,Wunderground v.1.15,2013-07-09 20:01:00,
2013-07-09 16:06:00,82.9,77.2,30.11,WSW,247,10.0,-999.0,83,0.00,,,0.00,Wunderground v.1.15,2013-07-09 20:06:00,
2013-07-09 16:11:00,83.0,77.3,30.11,SW,231,6.0,-999.0,83,0.00,,,0.00,Wunderground v.1.15,2013-07-09 20:11:00,
2013-07-09 16:16:00,83.0,77.3,30.11,WSW,250,5.0,-999.0,83,0.00,,,0.00,Wunderground v.1.15,2013-07-09 20:16:00,
2013-07-09 16:21:00,83.1,77.0,30.11,WSW,249,11.0,-999.0,82,0.00,,,0.00,Wunderground v.1.15,2013-07-09 20:21:00,
2013-07-09 16:26:00,83.1,77.0,30.11,WSW,252,12.0,-999.0,82,0.00,,,0.00,Wunderground v.1.15,2013-07-09 20:26:00,
2013-07-09 16:31:00,83.0,76.9,30.11,WSW,240,13.0,-999.0,82,0.00,,,0.00,Wunderground v.1.15,2013-07-09 20:31:00,
2013-07-09 16:36:00,82.7,76.6,30.11,SW,231,2.0,-999.0,82,0.00,,,0.00,Wunderground v.1.15,2013-07-09 20:36:00,
2013-07-09 16:41:00,82.8,76.7,30.11,SW,232,10.0,-999.0,82,0.00,,,0.00,Wunderground v.1.15,2013-07-09 20:41:00,
2013-07-09 16:46:00,82.5,76.8,30.11,WSW,252,8.0,-999.0,83,0.00,,,0.00,Wunderground v.1.15,2013-07-09 20:46:00,
2013-07-09 16:51:00,82.4,77.1,30.11,WSW,243,5.0,-999.0,84,0.00,,,0.00,Wunderground v.1.15,2013-07-09 20:51:00,
2013-07-09 16:52:00,82.4,77.1,30.11,WSW,243,1.0,-999.0,84,0.00,,,0.00,Wunderground v.1.15,2013-07-09 20:52:00,
2013-07-09 16:57:00,82.9,77.6,30.10,SSW,208,8.0,-999.0,84,0.00,,,0.00,Wunderground v.1.15,2013-07-09 20:57:00,
2013-07-09 17:02:00,83.0,77.3,30.10,WSW,245,12.0,-999.0,83,0.00,,,0.00,Wunderground v.1.15,2013-07-09 21:02:00,
2013-07-09 17:07:00,82.8,77.1,30.10,WSW,254,9.0,-999.0,83,0.00,,,0.00,Wunderground v.1.15,2013-07-09 21:07:00,
2013-07-09 17:12:00,83.0,77.3,30.10,SW,234,11.0,-999.0,83,0.00,,,0.00,Wunderground v.1.15,2013-07-09 21:12:00,
2013-07-09 17:17:00,83.0,77.3,30.10,WSW,238,8.0,-999.0,83,0.00,,,0.00,Wunderground v.1.15,2013-07-09 21:17:00,
2013-07-09 17:22:00,83.1,77.4,30.10,SW,231,3.0,-999.0,83,0.00,,,0.00,Wunderground v.1.15,2013-07-09 21:22:00,
2013-07-09 17:27:00,83.0,77.3,30.10,SW,220,5.0,-999.0,83,0.00,,,0.00,Wunderground v.1.15,2013-07-09 21:27:00,
2013-07-09 17:32:00,82.9,77.2,30.10,WSW,242,5.0,-999.0,83,0.00,,,0.00,Wunderground v.1.15,2013-07-09 21:32:00,
2013-07-09 17:38:00,83.0,77.3,30.10,SW,214,10.0,-999.0,83,0.00,,,0.00,Wunderground v.1.15,2013-07-09 21:38:00,
2013-07-09 17:43:00,82.7,77.0,30.09,WSW,242,3.0,-999.0,83,0.00,,,0.00,Wunderground v.1.15,2013-07-09 21:43:00,
2013-07-09 17:48:00,82.7,77.4,30.09,SW,217,6.0,-999.0,84,0.00,,,0.00,Wunderground v.1.15,2013-07-09 21:48:00,
2013-07-09 17:53:00,82.7,77.4,30.09,SW,223,6.0,-999.0,84,0.00,,,0.00,Wunderground v.1.15,2013-07-09 21:53:00,
2013-07-09 17:58:00,82.6,76.9,30.09,SW,217,11.0,-999.0,83,0.00,,,0.00,Wunderground v.1.15,2013-07-09 21:58:00,
2013-07-09 18:03:00,82.4,77.1,30.09,SW,224,12.0,-999.0,84,0.00,,,0.00,Wunderground v.1.15,2013-07-09 22:03:00,
2013-07-09 18:08:00,82.3,77.0,30.09,SW,234,5.0,-999.0,84,0.00,,,0.00,Wunderground v.1.15,2013-07-09 22:08:00,
2013-07-09 18:13:00,82.2,76.9,30.09,SW,234,11.0,-999.0,84,0.00,,,0.00,Wunderground v.1.15,2013-07-09 22:13:00,
2013-07-09 18:18:00,82.1,76.8,30.09,SW,223,5.0,-999.0,84,0.00,,,0.00,Wunderground v.1.15,2013-07-09 22:18:00,
2013-07-09 18:23:00,81.7,76.4,30.09,SW,225,7.0,-999.0,84,0.00,,,0.00,Wunderground v.1.15,2013-07-09 22:23:00,
2013-07-09 18:29:00,81.5,76.6,30.09,WSW,258,13.0,-999.0,85,0.00,,,0.00,Wunderground v.1.15,2013-07-09 22:29:00,
2013-07-09 18:34:00,81.3,76.4,30.10,WSW,243,9.0,-999.0,85,0.00,,,0.00,Wunderground v.1.15,2013-07-09 22:34:00,
2013-07-09 18:39:00,81.1,76.2,30.10,West,265,2.0,-999.0,85,0.00,,,0.00,Wunderground v.1.15,2013-07-09 22:39:00,
2013-07-09 18:44:00,80.9,76.3,30.10,WSW,257,3.0,-999.0,86,0.00,,,0.00,Wunderground v.1.15,2013-07-09 22:44:00,
2013-07-09 18:49:00,80.8,76.2,30.10,West,263,11.0,-999.0,86,0.00,,,0.00,Wunderground v.1.15,2013-07-09 22:49:00,
2013-07-09 18:54:00,80.7,76.1,30.11,WSW,238,8.0,-999.0,86,0.00,,,0.00,Wunderground v.1.15,2013-07-09 22:54:00,
2013-07-09 18:59:00,80.5,76.3,30.11,WSW,251,8.0,-999.0,87,0.00,,,0.00,Wunderground v.1.15,2013-07-09 22:59:00,
2013-07-09 19:04:00,80.3,76.1,30.11,WSW,245,7.0,-999.0,87,0.00,,,0.00,Wunderground v.1.15,2013-07-09 23:04:00,
2013-07-09 19:09:00,80.2,76.0,30.11,WSW,240,5.0,-999.0,87,0.00,,,0.00,Wunderground v.1.15,2013-07-09 23:09:00,
2013-07-09 19:14:00,80.0,75.8,30.10,WSW,240,10.0,-999.0,87,0.00,,,0.00,Wunderground v.1.15,2013-07-09 23:14:00,
2013-07-09 19:19:00,79.9,76.0,30.10,WSW,253,3.0,-999.0,88,0.00,,,0.00,Wunderground v.1.15,2013-07-09 23:19:00,
2013-07-09 19:25:00,79.8,75.9,30.10,WSW,250,4.0,-999.0,88,0.00,,,0.00,Wunderground v.1.15,2013-07-09 23:25:00,
2013-07-09 19:30:00,79.7,75.8,30.09,WSW,242,1.0,-999.0,88,0.00,,,0.00,Wunderground v.1.15,2013-07-09 23:30:00,
2013-07-09 19:35:00,79.6,75.7,30.09,WSW,244,7.0,-999.0,88,0.00,,,0.00,Wunderground v.1.15,2013-07-09 23:35:00,
2013-07-09 19:40:00,79.5,75.6,30.09,WSW,237,7.0,-999.0,88,0.00,,,0.00,Wunderground v.1.15,2013-07-09 23:40:00,
2013-07-09 19:45:00,79.5,75.6,30.09,WSW,237,5.0,-999.0,88,0.00,,,0.00,Wunderground v.1.15,2013-07-09 23:45:00,
2013-07-09 19:50:00,79.4,75.9,30.09,WSW,243,4.0,-999.0,89,0.00,,,0.00,Wunderground v.1.15,2013-07-09 23:50:00,
2013-07-09 19:55:00,79.4,75.9,30.09,SW,236,9.0,-999.0,89,0.00,,,0.00,Wunderground v.1.15,2013-07-09 23:55:00,
2013-07-09 20:00:00,79.3,75.8,30.09,WSW,242,8.0,-999.0,89,0.00,,,0.00,Wunderground v.1.15,2013-07-10 00:00:00,
2013-07-09 20:05:00,79.1,75.6,30.09,WSW,240,5.0,-999.0,89,0.00,,,0.00,Wunderground v.1.15,2013-07-10 00:05:00,
2013-07-09 20:10:00,79.0,75.5,30.09,WSW,244,8.0,-999.0,89,0.00,,,0.00,Wunderground v.1.15,2013-07-10 00:10:00,
2013-07-09 20:15:00,78.9,75.4,30.10,WSW,239,5.0,-999.0,89,0.00,,,0.00,Wunderground v.1.15,2013-07-10 00:15:00,
2013-07-09 20:20:00,78.9,75.4,30.09,WSW,238,4.0,-999.0,89,0.00,,,0.00,Wunderground v.1.15,2013-07-10 00:20:00,
2013-07-09 20:25:00,78.8,75.3,30.09,SW,234,9.0,-999.0,89,0.00,,,0.00,Wunderground v.1.15,2013-07-10 00:25:00,
2013-07-09 20:30:00,78.7,75.2,30.09,WSW,244,4.0,-999.0,89,0.00,,,0.00,Wunderground v.1.15,2013-07-10 00:30:00,
2013-07-09 20:36:00,78.7,75.2,30.10,WSW,250,4.0,-999.0,89,0.00,,,0.00,Wunderground v.1.15,2013-07-10 00:36:00,
2013-07-09 20:41:00,78.7,75.2,30.10,SW,236,9.0,-999.0,89,0.00,,,0.00,Wunderground v.1.15,2013-07-10 00:41:00,
2013-07-09 20:46:00,78.6,75.1,30.10,WSW,240,5.0,-999.0,89,0.00,,,0.00,Wunderground v.1.15,2013-07-10 00:46:00,
2013-07-09 20:51:00,78.5,75.0,30.10,WSW,250,7.0,-999.0,89,0.00,,,0.00,Wunderground v.1.15,2013-07-10 00:51:00,
2013-07-09 20:56:00,78.5,75.0,30.10,WSW,250,10.0,-999.0,89,0.00,,,0.00,Wunderground v.1.15,2013-07-10 00:56:00,
2013-07-09 21:01:00,78.5,75.0,30.11,WSW,246,8.0,-999.0,89,0.00,,,0.00,Wunderground v.1.15,2013-07-10 01:01:00,
2013-07-09 21:06:00,78.4,74.9,30.11,WSW,246,3.0,-999.0,89,0.00,,,0.00,Wunderground v.1.15,2013-07-10 01:06:00,
2013-07-09 21:11:00,78.4,75.2,30.11,WSW,248,4.0,-999.0,90,0.00,,,0.00,Wunderground v.1.15,2013-07-10 01:11:00,
2013-07-09 21:16:00,78.3,75.1,30.11,WSW,241,5.0,-999.0,90,0.00,,,0.00,Wunderground v.1.15,2013-07-10 01:16:00,
2013-07-09 21:21:00,78.2,75.0,30.11,WSW,245,13.0,-999.0,90,0.00,,,0.00,Wunderground v.1.15,2013-07-10 01:21:00,
2013-07-09 21:26:00,78.2,75.0,30.12,WSW,250,5.0,-999.0,90,0.00,,,0.00,Wunderground v.1.15,2013-07-10 01:26:00,
2013-07-09 21:27:00,78.2,75.0,30.12,WSW,250,5.0,-999.0,90,0.00,,,0.00,Wunderground v.1.15,2013-07-10 01:27:00,
2013-07-09 21:32:00,78.2,75.0,30.12,WSW,248,7.0,-999.0,90,0.00,,,0.00,Wunderground v.1.15,2013-07-10 01:32:00,
2013-07-09 21:37:00,78.1,74.9,30.12,WSW,248,5.0,-999.0,90,0.00,,,0.00,Wunderground v.1.15,2013-07-10 01:37:00,
2013-07-09 21:42:00,78.1,74.9,30.12,WSW,250,5.0,-999.0,90,0.00,,,0.00,Wunderground v.1.15,2013-07-10 01:42:00,
2013-07-09 21:47:00,78.0,74.8,30.12,WSW,248,1.0,-999.0,90,0.00,,,0.00,Wunderground v.1.15,2013-07-10 01:47:00,
2013-07-09 21:52:00,77.9,74.7,30.12,WSW,248,3.0,-999.0,90,0.00,,,0.00,Wunderground v.1.15,2013-07-10 01:52:00,
2013-07-09 21:57:00,77.9,74.7,30.12,WSW,247,9.0,-999.0,90,0.00,,,0.00,Wunderground v.1.15,2013-07-10 01:57:00,
2013-07-09 22:02:00,77.9,75.1,30.12,WSW,244,4.0,-999.0,91,0.00,,,0.00,Wunderground v.1.15,2013-07-10 02:02:00,
2013-07-09 22:07:00,77.8,75.0,30.12,WSW,237,0.0,-999.0,91,0.00,,,0.00,Wunderground v.1.15,2013-07-10 02:07:00,
2013-07-09 22:12:00,77.8,75.0,30.12,SW,235,0.0,-999.0,91,0.00,,,0.00,Wunderground v.1.15,2013-07-10 02:12:00,
2013-07-09 22:17:00,77.8,75.0,30.12,SW,234,0.0,-999.0,91,0.00,,,0.00,Wunderground v.1.15,2013-07-10 02:17:00,
2013-07-09 22:22:00,77.9,75.1,30.12,SW,233,1.0,-999.0,91,0.00,,,0.00,Wunderground v.1.15,2013-07-10 02:22:00,
2013-07-09 22:27:00,77.9,75.1,30.12,WSW,237,2.0,-999.0,91,0.00,,,0.00,Wunderground v.1.15,2013-07-10 02:27:00,
2013-07-09 22:32:00,77.9,75.1,30.12,SW,236,5.0,-999.0,91,0.00,,,0.00,Wunderground v.1.15,2013-07-10 02:32:00,
2013-07-09 22:38:00,77.8,75.0,30.12,WSW,238,8.0,-999.0,91,0.00,,,0.00,Wunderground v.1.15,2013-07-10 02:38:00,
2013-07-09 22:43:00,77.8,75.0,30.11,SW,236,1.0,-999.0,91,0.00,,,0.00,Wunderground v.1.15,2013-07-10 02:43:00,
2013-07-09 22:48:00,77.7,74.9,30.12,WSW,244,2.0,-999.0,91,0.00,,,0.00,Wunderground v.1.15,2013-07-10 02:48:00,
2013-07-09 22:53:00,77.6,74.8,30.11,WSW,245,5.0,-999.0,91,0.00,,,0.00,Wunderground v.1.15,2013-07-10 02:53:00,
2013-07-09 22:58:00,77.5,74.7,30.11,WSW,246,2.0,-999.0,91,0.00,,,0.00,Wunderground v.1.15,2013-07-10 02:58:00,
2013-07-09 23:03:00,77.5,74.7,30.11,WSW,244,5.0,-999.0,91,0.00,,,0.00,Wunderground v.1.15,2013-07-10 03:03:00,
2013-07-09 23:08:00,77.4,74.6,30.12,WSW,242,0.0,-999.0,91,0.00,,,0.00,Wunderground v.1.15,2013-07-10 03:08:00,
2013-07-09 23:13:00,77.3,74.5,30.12,WSW,248,8.0,-999.0,91,0.00,,,0.00,Wunderground v.1.15,2013-07-10 03:13:00,
2013-07-09 23:18:00,77.1,74.3,30.12,WSW,245,0.0,-999.0,91,0.00,,,0.00,Wunderground v.1.15,2013-07-10 03:18:00,
2013-07-09 23:23:00,77.0,74.5,30.12,WSW,245,5.0,-999.0,92,0.00,,,0.00,Wunderground v.1.15,2013-07-10 03:23:00,
2013-07-09 23:28:00,76.9,74.4,30.12,WSW,246,8.0,-999.0,92,0.00,,,0.00,Wunderground v.1.15,2013-07-10 03:28:00,
2013-07-09 23:33:00,76.8,74.3,30.12,WSW,246,9.0,-999.0,92,0.00,,,0.00,Wunderground v.1.15,2013-07-10 03:33:00,
2013-07-09 23:38:00,76.8,74.3,30.12,WSW,246,5.0,-999.0,92,0.00,,,0.00,Wunderground v.1.15,2013-07-10 03:38:00,
2013-07-09 23:43:00,76.8,74.3,30.12,WSW,246,5.0,-999.0,92,0.00,,,0.00,Wunderground v.1.15,2013-07-10 03:43:00,
2013-07-09 23:49:00,76.8,74.3,30.12,WSW,245,1.0,-999.0,92,0.00,,,0.00,Wunderground v.1.15,2013-07-10 03:49:00,
2013-07-09 23:54:00,76.8,74.3,30.12,WSW,243,5.0,-999.0,92,0.00,,,0.00,Wunderground v.1.15,2013-07-10 03:54:00,
2013-07-09 23:59:00,76.8,74.3,30.12,WSW,240,6.0,-999.0,92,0.00,,,0.00,Wunderground v.1.15,2013-07-10 03:59:00,